Location: Monrovia
(34.7865°N, 86.7139°W)
Time: 01:16:48
(UTC+00:00)

OAO 2 Rocket - Visible Passes

Search period start: 24 October 2020 00:00
Search period end: 03 November 2020 00:00
Orbit: 676 x 745 km, 35.0° (Epoch: 23 October)

Date Brightness Start Highest point End Pass type
(mag) Time Alt. Az. Time Alt. Az. Time Alt. Az.
24 Oct 3.9 00:11:20 10° SW 00:15:59 42° SSE 00:18:07 27° ESE visible
24 Oct 5.6 01:55:37 10° W 01:57:05 19° W 01:57:05 19° W visible
25 Oct 3.2 00:57:46 10° WSW 01:02:28 73° SSW 01:02:28 73° SSW visible
25 Oct 3.4 23:59:58 10° WSW 00:04:53 61° SSE 00:07:50 23° E visible
26 Oct 5.2 01:44:39 10° W 01:46:47 26° W 01:46:47 26° W visible
27 Oct 3.0 00:46:44 10° W 00:51:44 89° SSE 00:52:06 76° E visible
27 Oct 3.3 23:48:51 10° WSW 23:53:51 79° S 23:57:24 19° E visible
28 Oct 4.9 01:33:41 10° W 01:36:22 32° W 01:36:22 32° W visible
29 Oct 3.1 00:35:46 10° W 00:40:46 86° N 00:41:40 60° E visible
29 Oct 6.4 02:20:37 10° W 02:20:37 10° W 02:20:37 10° W visible
29 Oct 3.3 23:37:49 10° W 23:42:52 89° NNW 23:46:58 15° E visible
30 Oct 4.4 01:22:42 10° W 01:25:55 40° W 01:25:55 40° W visible
31 Oct 3.2 00:24:46 10° W 00:29:48 89° S 00:31:15 47° E visible
31 Oct 6.2 02:09:41 10° W 02:10:12 13° W 02:10:12 13° W visible
31 Oct 3.3 23:26:50 10° W 23:31:55 87° N 23:36:37 11° E visible
01 Nov 4.0 01:11:43 10° W 01:15:35 48° WSW 01:15:35 48° WSW visible
02 Nov 3.3 00:13:47 10° W 00:18:49 76° SSW 00:21:00 33° ESE visible
02 Nov 6.0 01:58:55 10° W 01:59:58 15° W 01:59:58 15° W visible
02 Nov 3.4 23:15:50 10° W 23:20:56 87° S 23:25:56 10° E visible
